Regional Weather Roundup
Issued by NWS San Diego, CA

Home | Current Version | Previous Version | Text Only | Print | Product List | Glossary On
Versions: 1 2 3 4 5 6 7 8 9 10 11 12 13 14 15 16 17 18 19 20 21 22 23 24 25 26 27 28 29 30 31 32 33 34 35 36 37 38 39 40 41 42 43 44 45 46 47 48 49 50
000
ASUS46 KSGX 211104
RWRSGX

SAN DIEGO HOURLY WEATHER ROUNDUP
NATIONAL WEATHER SERVICE SAN DIEGO CA
400 AM PDT MON AUG 21 2017

NOTE: "FAIR" INDICATES FEW OR NO CLOUDS BELOW 12,000 FEET WITH NO
SIGNIFICANT WEATHER AND/OR OBSTRUCTIONS TO VISIBILITY.

CAZ042-043-060-061-PZZ750-775-211200-

GREATER SAN DIEGO AREA

CITY           SKY/WX    TMP DP  RH WIND       PRES   REMARKS
SAN DIEGO AP   CLOUDY    70  60  70 NW3       29.96S
NATIONAL CITY    N/A     69  63  81 CALM      29.97F
IMPERIAL BEACH CLOUDY    69  60  73 CALM      29.95F
BROWN FIELD    CLOUDY    67  60  78 CALM      29.96S
MIRAMAR MCAS   CLOUDY    71  59  65 W5        29.95S
MONTGOMERY FLD CLOUDY    70  60  70 W6        29.96S
GILLESPIE FLD    N/A     68  59  73 N5        29.96S

$$

NORTH SAN DIEGO COUNTY

CITY           SKY/WX    TMP DP  RH WIND       PRES   REMARKS
CAMP PENDLETON CLOUDY    58  32  37 CALM      29.95S
OCEANSIDE AP   CLOUDY    68  61  78 CALM      29.95S
OCEANSIDE HBR    N/A     66  61  84 SE3       29.98S
VISTA            N/A     65  60  83 CALM      29.93S
CARLSBAD       CLOUDY    67  60  78 CALM      29.95S
DEL MAR          N/A     67  62  83 CALM      29.96S
LA JOLLA SCRIP   N/A     67  63  85 SE3       29.94S
FALLBROOK        N/A     64  63  97 CALM      29.97S
ESCONDIDO        N/A     67  61  82 CALM      29.96S
POWAY            N/A     66  60  78 CALM      29.96S

$$

EAST SAN DIEGO COUNTY

CITY           SKY/WX    TMP DP  RH WIND       PRES   REMARKS
RAMONA         CLOUDY    63  60  90 CALM      29.97S
SANTEE LAKES     N/A     67  61  79 CALM      29.93F
LA MESA          N/A     66  61  82 CALM      29.88S
JAMUL            N/A     63  59  87 CALM      29.95S
DESCANSO N       N/A     67  40  38 E2        29.83S
CAMPO            N/A     53  42  66 NE6       29.97S

$$

ORANGE COUNTY AND THE LOS ANGELES BASIN

CITY           SKY/WX    TMP DP  RH WIND       PRES   REMARKS
JOHN WAYNE AP  CLOUDY    68  60  75 S5        29.95F
LAKE FOREST FR   N/A     63  56  77 CALM      29.85S
HUNTINGTON BCH   N/A     67  62  82 S1        29.96F
LOS ALAMITOS   CLOUDY    68  60  75 CALM      29.95F
FULLERTON      CLOUDY    69  61  75 CALM      29.95S
LONG BEACH     CLOUDY    68  60  75 CALM      29.95F
L.A. AP        MOCLDY    68  61  78 CALM      29.96S
L.A. DOWNTOWN  CLOUDY    70  60  70 CALM      29.95S

$$

THE INLAND EMPIRE

CITY           SKY/WX    TMP DP  RH WIND       PRES   REMARKS
CORONA         CLOUDY    64  59  83 CALM      29.98S
CHINO          CLOUDY    67  60  78 S3        29.98S
ONTARIO        MOCLDY    65  59  81 S5        29.97S
SAN BERNARDINO CLOUDY    66  59  79 W3        29.98S
RIVERSIDE AP   CLOUDY    65  61  87 CALM      29.97F
MORENO VALLEY    N/A     62  61  96 CALM      28.07S
MARCH ARB      CLOUDY    61  61 100 W6        29.98S
HORSETHIEF CYN   N/A     61  56  83 CALM      29.96S
PERRIS           N/A     61  60  95 NW1       29.97S
HEMET EAST       N/A     59  53  80 CALM      29.98S
FRENCH VALLEY  CLOUDY    59  57  94 CALM      29.98F
TEMECULA         N/A     62  60  93 CALM      30.03S

$$

SAN BERNARDINO AND RIVERSIDE COUNTY MOUNTAINS

CITY           SKY/WX    TMP DP  RH WIND       PRES   REMARKS
BIG BEAR AP    CLEAR     50  37  62 CALM      30.23S
PINE COVE        N/A     62  33  33 CALM      29.86S

$$

SOUTHERN DESERT INCLUDING THE COACHELLA VALLEY

CITY           SKY/WX    TMP DP  RH WIND       PRES   REMARKS
PALM SPRINGS   CLEAR     79  59  50 CALM      29.83S
THOUSAND PALMS   N/A     84  51  31 NW9       29.78S
PALM DESERT      N/A     78  59  52 CALM      31.93S
THERMAL        CLEAR     81  57  43 NW8       29.77S
BLYTHE         PTCLDY    90  49  24 S6        29.80F
IMPERIAL AP    CLEAR     79  50  36 CALM      29.78R
EL CENTRO NAS  CLEAR     79  40  24 N3        29.80S

$$

UPPER DESERT

CITY           SKY/WX    TMP DP  RH WIND       PRES   REMARKS
VICTORVILLE AP CLEAR     68  46  45 CALM      30.00S
HESPERIA         N/A     63  48  57 CALM      29.96S
PALMDALE       CLEAR     65  50  58 S8        29.98S
LANCASTER      CLEAR     66  47  50 SW8       29.97S
EDWARDS AFB    CLEAR     66  48  51 S7        29.95S
DAGGETT        CLEAR     73  48  41 W8        29.95R
29 PALMS N     PTCLDY    78  42  27 W5        29.99S
NEEDLES        LGT RAIN  88  68  51 W5        29.84S

$$

REGIONAL REPORTS

CITY           SKY/WX    TMP DP  RH WIND       PRES   REMARKS
SANTA BARBARA  CLOUDY    66  61  84 CALM      29.96S
SANDBERG       CLEAR     63  45  51 SW7       30.10S
LAS VEGAS NV   CLOUDY    87  51  28 W14       29.92F
PHOENIX AZ     MOCLDY    88  57  34 E9        29.87R
TIJUANA        CLOUDY    66  61  82 CALM      29.99R
ENSENADA NW      N/A     66  32  27 CALM      29.93S

$$

OFFSHORE ISLANDS

CITY           SKY/WX    TMP DP  RH WIND       PRES   REMARKS
CATALINA ARPT  CLOUDY    60  58  92 CALM      29.98F
SAN NICOLAS IS CLOUDY   N/A N/A N/A SE3       29.96S

$$

MARINE AND OFFSHORE BUOY REPORTS

STATION/POSITION SKY/WX   TEMP    WIND        PRES    VSBY  SWELL
                          AIR SEA DIR/SP/G                  HT/PER/DIR
                          (F)     (DEG/KT/KT) (MB)    (MI)  (FT/S/D)
TANNER BANKS               65 67   90/  4/  6 1014.0          5/290/11
S CLEMENTE BASIN           67 70  210/  4/  6 1014.5          3/220/11
SAN NICOLAS IS.               64                N/A           3/300/11
SO. S. ROSA ISLA           64 64  150/  8/ 14 1014.2S         5/200/14
W. S. BARBARA CH           63 62   90/  4/  6 1014.3R         5/300/11
M. S. BARBARA CH           65 66  140/  8/ 10 1015.3R         2/240/ 8
S. MONICA BASIN               70  190/  2/  4 1014.2F
S PEDRO CHANNEL               70                N/A           2/260/11
CMP PENDLETON NS              69                N/A           2/210/13
OCEANSIDE OFFSHR              71                N/A           2/210/13
TORREY PINES OTR              72                N/A           2/210/13
SAN DIEGO BAY                 74              1014.6S
POINT LOMA SOUTH              70                N/A           2/200/14

$$




USA.gov is the U.S. government's official web portal to all federal, state and local government web resources and services.